Hourly Weather Alkuzhi

Today, 8 March, Monday

Time Temperature Precipitation Wind Pressure Humidity
00:00 -6°C° 0.3 mm 5 mps 738 mmHg 82%
01:00 -7°C° 0 mm 5 mps 738 mmHg 82%
02:00 -8°C° 0 mm 5 mps 739 mmHg 82%
03:00 -10°C° 0 mm 5 mps 739 mmHg 83%
04:00 -11°C° 0 mm 5 mps 739 mmHg 85%
05:00 -11°C° 0 mm 4 mps 740 mmHg 87%
06:00 -12°C° 0 mm 4 mps 740 mmHg 89%
07:00 -11°C° 0.1 mm 4 mps 740 mmHg 90%
08:00 -9°C° 0.1 mm 4 mps 740 mmHg 91%
09:00 -8°C° 0 mm 5 mps 740 mmHg 94%
10:00 -7°C° 0.2 mm 5 mps 740 mmHg 90%
11:00 -8°C° 0.2 mm 6 mps 740 mmHg 87%
12:00 -7°C° 0.2 mm 7 mps 741 mmHg 83%
13:00 -7°C° 0.1 mm 7 mps 741 mmHg 81%
14:00 -7°C° 0.1 mm 7 mps 741 mmHg 79%
15:00 -7°C° 0.1 mm 7 mps 741 mmHg 77%
16:00 -9°C° 0 mm 6 mps 742 mmHg 80%
17:00 -10°C° 0 mm 4 mps 743 mmHg 82%
18:00 -10°C° 0 mm 3 mps 744 mmHg 84%
19:00 -12°C° 0 mm 3 mps 744 mmHg 86%
20:00 -13°C° 0 mm 3 mps 745 mmHg 88%
21:00 -13°C° 0 mm 2 mps 746 mmHg 90%
22:00 -14°C° 0 mm 2 mps 746 mmHg 91%
23:00 -14°C° 0 mm 2 mps 746 mmHg 92%

Tomorrow, 9 March, Tuesday

Time Temperature Precipitation Wind Pressure Humidity
00:00 -15°C° 0 mm 2 mps 746 mmHg 93%
01:00 -15°C° 0 mm 2 mps 747 mmHg 94%
02:00 -16°C° 0 mm 2 mps 747 mmHg 95%
03:00 -16°C° 0 mm 2 mps 747 mmHg 96%
04:00 -16°C° 0 mm 2 mps 748 mmHg 96%
05:00 -16°C° 0 mm 2 mps 748 mmHg 96%
06:00 -16°C° 0 mm 2 mps 748 mmHg 96%
07:00 -16°C° 0 mm 2 mps 748 mmHg 95%
08:00 -15°C° 0 mm 2 mps 749 mmHg 94%
09:00 -15°C° 0 mm 2 mps 749 mmHg 93%
10:00 -14°C° 0 mm 2 mps 749 mmHg 91%
11:00 -13°C° 0 mm 2 mps 749 mmHg 90%
12:00 -13°C° 0 mm 3 mps 750 mmHg 89%
13:00 -13°C° 0 mm 3 mps 750 mmHg 88%
14:00 -13°C° 0 mm 3 mps 750 mmHg 87%
15:00 -12°C° 0 mm 4 mps 750 mmHg 86%
16:00 -13°C° 0 mm 3 mps 750 mmHg 88%
17:00 -14°C° 0 mm 3 mps 751 mmHg 91%
18:00 -15°C° 0 mm 3 mps 751 mmHg 93%
19:00 -16°C° 0 mm 3 mps 752 mmHg 93%
20:00 -16°C° 0 mm 3 mps 752 mmHg 94%
21:00 -17°C° 0 mm 3 mps 753 mmHg 95%
22:00 -18°C° 0 mm 3 mps 753 mmHg 95%
23:00 -21°C° 0 mm 3 mps 753 mmHg 96%

Day after tomorrow, 10 March, Wednesday

Time Temperature Precipitation Wind Pressure Humidity
00:00 -22°C° 0 mm 3 mps 754 mmHg 96%
01:00 -23°C° 0 mm 3 mps 754 mmHg 97%
02:00 -24°C° 0 mm 3 mps 754 mmHg 97%
03:00 -24°C° 0 mm 3 mps 755 mmHg 98%
04:00 -25°C° 0 mm 3 mps 755 mmHg 98%
05:00 -26°C° 0 mm 3 mps 755 mmHg 98%
06:00 -26°C° 0 mm 3 mps 756 mmHg 98%
07:00 -26°C° 0 mm 3 mps 756 mmHg 97%
08:00 -25°C° 0 mm 3 mps 757 mmHg 96%
09:00 -26°C° 0 mm 4 mps 757 mmHg 95%
10:00 -25°C° 0 mm 4 mps 758 mmHg 93%
11:00 -24°C° 0 mm 4 mps 758 mmHg 91%
12:00 -23°C° 0 mm 4 mps 758 mmHg 88%
13:00 -22°C° 0 mm 4 mps 758 mmHg 88%
14:00 -22°C° 0 mm 4 mps 759 mmHg 87%
15:00 -20°C° 0 mm 4 mps 759 mmHg 86%
16:00 -22°C° 0 mm 4 mps 759 mmHg 88%
17:00 -22°C° 0 mm 3 mps 759 mmHg 91%
18:00 -23°C° 0 mm 3 mps 759 mmHg 93%
19:00 -24°C° 0 mm 3 mps 760 mmHg 94%
20:00 -24°C° 0 mm 2 mps 760 mmHg 95%
21:00 -25°C° 0 mm 2 mps 761 mmHg 96%
22:00 -25°C° 0 mm 2 mps 761 mmHg 95%
23:00 -26°C° 0 mm 2 mps 761 mmHg 95%

11 March, Thursday

Time Temperature Precipitation Wind Pressure Humidity
00:00 -26°C° 0 mm 2 mps 762 mmHg 95%
01:00 -26°C° 0 mm 2 mps 762 mmHg 95%
02:00 -26°C° 0 mm 2 mps 762 mmHg 95%
03:00 -27°C° 0 mm 2 mps 763 mmHg 95%
04:00 -27°C° 0 mm 2 mps 763 mmHg 96%
05:00 -27°C° 0 mm 2 mps 763 mmHg 97%
06:00 -27°C° 0 mm 2 mps 763 mmHg 97%
07:00 -26°C° 0 mm 2 mps 763 mmHg 96%
08:00 -25°C° 0 mm 2 mps 764 mmHg 96%
09:00 -23°C° 0 mm 2 mps 764 mmHg 95%
10:00 -21°C° 0 mm 2 mps 764 mmHg 92%
11:00 -19°C° 0 mm 2 mps 764 mmHg 89%
12:00 -17°C° 0 mm 2 mps 764 mmHg 87%
13:00 -17°C° 0 mm 2 mps 764 mmHg 86%
14:00 -16°C° 0 mm 2 mps 764 mmHg 86%
15:00 -15°C° 0 mm 2 mps 764 mmHg 86%
16:00 -17°C° 0 mm 2 mps 764 mmHg 89%
17:00 -18°C° 0 mm 2 mps 764 mmHg 92%
18:00 -19°C° 0 mm 2 mps 764 mmHg 95%
19:00 -20°C° 0 mm 2 mps 764 mmHg 96%
20:00 -19°C° 0 mm 1 mps 764 mmHg 97%
21:00 -19°C° 0 mm 1 mps 764 mmHg 98%
22:00 -20°C° 0 mm 1 mps 765 mmHg 98%
23:00 -20°C° 0 mm 1 mps 765 mmHg 98%

12 March, Friday

Time Temperature Precipitation Wind Pressure Humidity
00:00 -21°C° 0 mm 1 mps 765 mmHg 98%
01:00 -21°C° 0 mm 1 mps 765 mmHg 98%
02:00 -21°C° 0 mm 1 mps 765 mmHg 97%
03:00 -21°C° 0 mm 1 mps 765 mmHg 97%
04:00 -21°C° 0 mm 1 mps 765 mmHg 97%
05:00 -22°C° 0 mm 1 mps 765 mmHg 97%
06:00 -22°C° 0 mm 1 mps 765 mmHg 97%
07:00 -20°C° 0 mm 1 mps 765 mmHg 94%
08:00 -19°C° 0 mm 1 mps 766 mmHg 92%
09:00 -18°C° 0 mm 1 mps 766 mmHg 90%
10:00 -18°C° 0 mm 2 mps 766 mmHg 86%
11:00 -16°C° 0 mm 2 mps 766 mmHg 83%
12:00 -14°C° 0 mm 2 mps 766 mmHg 79%
13:00 -14°C° 0 mm 2 mps 765 mmHg 79%
14:00 -14°C° 0 mm 3 mps 765 mmHg 80%
15:00 -13°C° 0 mm 3 mps 765 mmHg 80%
16:00 -15°C° 0 mm 3 mps 765 mmHg 83%
17:00 -16°C° 0 mm 3 mps 765 mmHg 86%
18:00 -17°C° 0 mm 3 mps 764 mmHg 88%
19:00 -18°C° 0 mm 3 mps 765 mmHg 88%
20:00 -19°C° 0 mm 3 mps 765 mmHg 88%
21:00 -21°C° 0 mm 3 mps 765 mmHg 88%
22:00 -21°C° 0 mm 3 mps 764 mmHg 88%
23:00 -21°C° 0 mm 3 mps 764 mmHg 88%

13 March, Saturday

Time Temperature Precipitation Wind Pressure Humidity
00:00 -22°C° 0 mm 4 mps 764 mmHg 88%
01:00 -20°C° 0 mm 4 mps 764 mmHg 87%
02:00 -20°C° 0 mm 4 mps 764 mmHg 86%
03:00 -20°C° 0 mm 4 mps 763 mmHg 85%
04:00 -19°C° 0 mm 4 mps 763 mmHg 85%
05:00 -19°C° 0 mm 4 mps 763 mmHg 84%
06:00 -19°C° 0 mm 5 mps 763 mmHg 83%
07:00 -18°C° 0 mm 5 mps 762 mmHg 80%
08:00 -17°C° 0 mm 6 mps 762 mmHg 78%
09:00 -15°C° 0 mm 6 mps 762 mmHg 75%
10:00 -14°C° 0 mm 6 mps 762 mmHg 74%
11:00 -13°C° 0 mm 7 mps 762 mmHg 73%
12:00 -12°C° 0 mm 7 mps 761 mmHg 71%
13:00 -11°C° 0 mm 7 mps 761 mmHg 74%
14:00 -11°C° 0 mm 7 mps 761 mmHg 77%
15:00 -11°C° 0 mm 7 mps 760 mmHg 80%
16:00 -11°C° 0.1 mm 7 mps 760 mmHg 80%
17:00 -10°C° 0.1 mm 6 mps 760 mmHg 80%
18:00 -10°C° 0.1 mm 6 mps 760 mmHg 79%
19:00 -10°C° 0 mm 6 mps 760 mmHg 81%
20:00 -10°C° 0 mm 6 mps 760 mmHg 82%
21:00 -10°C° 0 mm 6 mps 759 mmHg 83%
22:00 -10°C° 0 mm 6 mps 759 mmHg 82%
23:00 -10°C° 0 mm 6 mps 759 mmHg 82%
Show more